x

Worcester Regional Airport Weather Station

2:54 - Wed 28th Jan 2015 All times are EST. -5 hours from GMT.

  • Wind
    15mph, 27mph gusts
  • Air Temp 21°f
  • Sea Pressure 1014.2mb
  • Worcester Regional Airport
  • Worcester Regional Airport

More Historic Weather Station data

Upgrade to MSW Pro to gain access to the past 30 days of data for over 8000 Wavebouys and Weather Stations around the globe.

Join Pro

Comparision Forecast

View Surf forecast
   
mer. 01/28 2:54 15 27 mph 1014.2mb 21f
1:54 15 25 mph 1013.5mb 19f
12:54 18 28 mph 1012.9mb 18f
11:54 14 22 mph 1012.5mb 18f
10:54 10
mph
1012.2mb 14f
9:54 15 23 mph 1012.2mb 10f
8:54 16 30 mph 1011.2mb 10f
7:54 18 29 mph 1010.2mb 9f
6:54 21 29 mph 1008.8mb 9f
5:54 22 28 mph 1007.8mb 9f
4:54 21 30 mph 1006.4mb 7f
4:47 23 30 mph 1006.4mb 7f
3:54 21 29 mph 1005.4mb 9f
2:54 20 30 mph 1004.7mb 9f
1:54 21 28 mph 1004.1mb 9f
12:54 17 31 mph 1003.4mb 9f
mar. 01/27 11:54 18 28 mph 1003.1mb 9f
10:54 15 23 mph 1002.7mb 9f
9:54 15 29 mph 1002mb 10f
8:54 21 30 mph 1001.7mb 10f
8:18 18 28 mph 1001.4mb 10f
8:08 23 29 mph 1001.4mb 10f
7:54 24 32 mph 1001mb 10f
6:54 18 31 mph 1000.7mb 10f
6:34 16 28 mph 1000.3mb 10f
6:20 18 29 mph 1000mb 10f
6:01 15 32 mph 999.7mb 10f
5:54 20 31 mph 999.7mb 10f
5:45 17 35 mph 999.7mb 12f
4:54 17 27 mph 999mb 12f
4:49 18 32 mph 999mb 12f
4:28 22 30 mph 998.6mb 12f
4:20 16 29 mph 998.6mb 12f
3:54 20 29 mph 998.3mb 14f
3:45 20 31 mph 998.3mb 14f
3:13 17 23 mph 998.3mb 14f
2:54 17 25 mph 998.3mb 14f
2:11 13 27 mph 998mb 16f
1:54 16 28 mph 998mb 18f
12:54 14 28 mph 997.6mb 18f
12:31 14 32 mph 998mb 18f
12:23 22 41 mph 998mb 18f
11:54 30 41 mph 998mb 18f
11:47 24 43 mph 998mb 18f
11:15 25 52 mph 998.3mb 18f
10:54 24 39 mph 998mb 18f
9:54 24 35 mph 998.3mb 16f
9:50 28 35 mph 998.3mb 16f
9:30 25 43 mph 998.3mb 16f
9:23 22 32 mph 998.3mb 16f
8:54 23 43 mph 998.3mb 14f
7:54 23 54 mph 999.3mb 12f
6:54 20 39 mph 1000mb 12f
6:51 22 39 mph 1000.3mb 12f
6:25 22 44 mph 1000mb 12f
5:54 25 35 mph 1000mb 12f
5:50 22 41 mph 1000mb 12f
4:54 22 38 mph 1001mb 12f
4:47 23 44 mph 1001.4mb 12f
4:23 27 44 mph 1001.7mb 12f
3:54 25 38 mph 1002.4mb 10f
3:49 24 38 mph 1002.7mb 10f
2:54 20 37 mph 1004.1mb 10f
1:54 21 33 mph 1004.1mb 10f
1:13 22 38 mph 1004.7mb 10f
12:54 16 38 mph 1004.7mb 10f
lun. 01/26 11:54 20 33 mph 1007.1mb 12f
11:52 21 33 mph 1007.1mb 12f
10:54 22 37 mph 1008.8mb 12f
9:54 23 38 mph 1010.2mb 14f
9:46 21 32 mph 1010.5mb 14f
8:54 17 32 mph 1011.9mb 16f
8:29 18 31 mph 1012.2mb 16f
7:54 16 25 mph 1012.5mb 18f
7:47 16 25 mph 1012.9mb 18f
6:54 14 25 mph 1013.9mb 18f
6:33 15 25 mph 1013.5mb 18f
5:54 15 27 mph 1013.9mb 18f
5:32 13 22 mph 1014.2mb 18f
5:24 14 24 mph 1014.2mb 18f
5:03 15 22 mph 1014.2mb 18f
4:54 13 24 mph 1013.9mb 18f
4:45 12 22 mph 1013.9mb 18f
4:36 16 24 mph 1013.9mb 17f
4:18 12 23 mph 1014.2mb 18f
3:54 13
mph
1013.9mb 18f
3:02 14 23 mph 1014.6mb 18f
2:54 12 20 mph 1014.6mb 18f
1:54 13 18 mph 1014.9mb 16f
1:17 8 20 mph 1015.2mb 16f
12:54 9 18 mph 1014.9mb 16f
11:54 10
mph
1016.6mb 14f
10:54 12
mph
1017.3mb 12f
9:54 7
mph
1017.6mb 10f
8:54 9
mph
1017.6mb 9f
7:54 10
mph
1017.6mb 7f
6:54 9
mph
1016.9mb 9f
5:54 6
mph
1016.9mb 9f
4:54 6
mph
1015.9mb 9f
3:54 6
mph
1015.9mb 10f
2:54 7
mph
1015.6mb 12f
1:54 10
mph
1015.2mb 12f
12:54 8
mph
1014.9mb 14f
dim. 01/25 11:54 8
mph
1014.9mb 16f
10:54 3
mph
1013.9mb 16f
9:54 6
mph
1013.2mb 18f
8:54 6
mph
1012.5mb 18f
7:54 10
mph
1011.5mb 19f
6:54 10
mph
1010.5mb 21f
5:54 10
mph
1008.8mb 25f
4:54 16
mph
1007.1mb 25f
3:54 16 21 mph 1006.1mb 28f
2:54 15 24 mph 1005.1mb 30f
1:54 20 30 mph 1003.7mb 30f
12:54 18 28 mph 1002.7mb 30f
11:54 20 27 mph 1002mb 30f
10:54 15 24 mph 1002.4mb 30f
9:54 22 29 mph 1001mb 30f
8:54 16 24 mph 999.3mb 30f
7:54 14 22 mph 998.3mb 28f
6:54 13
mph
997.6mb 28f
5:54 9
mph
997mb 28f
4:54 16
mph
996.6mb 28f
4:22 10
mph
995.9mb 28f
4:13 10 20 mph 995.6mb 28f
3:54 15 24 mph 995.6mb 28f
3:30 15 22 mph 995.3mb 28f
2:54 14
mph
994.9mb 27f
1:54 21
mph
993.2mb 27f
12:54 24 29 mph 992.2mb 27f
sam. 01/24 11:54 25 33 mph 991.5mb 28f
10:54 21 32 mph 990.9mb 28f
9:54 23 28 mph 990.2mb 28f
8:54 16
mph
989.8mb 30f